AXM6240 WMKL-WMKP

Flight info

Callsign AXM6240
Flight time 0h 22m
Altitude 15000
Route KAPK1D KAPKO OMBO1E
Aircraft A20N/M-SDE1FGHIJ1RWXYZ/LB1

Departure

Time 2026-04-23 03:46
Airport Langkawi International Airport (WMKL)

Arrival

Time 2026-04-23 04:08
Airport Penang International Airport (WMKP)
Time Latitude Longitude Altitude Speed Heading
2026-04-23 03:23 6.34126 99.73277 30 ft 0 kts 303°
2026-04-23 03:37 6.34119 99.73286 30 ft 2 kts 303°
2026-04-23 03:37 6.34108 99.73303 30 ft 2 kts 303°
2026-04-23 03:37 6.34102 99.73312 30 ft 2 kts 304°
2026-04-23 03:38 6.34090 99.73320 30 ft 2 kts 349°
2026-04-23 03:38 6.34074 99.73319 30 ft 2 kts 25°
2026-04-23 03:38 6.34058 99.73307 30 ft 2 kts 31°
2026-04-23 03:38 6.34052 99.73304 30 ft 0 kts 32°
2026-04-23 03:39 6.34051 99.73303 30 ft 0 kts 33°
2026-04-23 03:41 6.34060 99.73309 30 ft 2 kts 33°
2026-04-23 03:42 6.34086 99.73325 30 ft 5 kts 33°
2026-04-23 03:42 6.34109 99.73360 30 ft 6 kts 88°
2026-04-23 03:42 6.34086 99.73403 30 ft 7 kts 127°
2026-04-23 03:42 6.34054 99.73447 30 ft 6 kts 123°
2026-04-23 03:43 6.34039 99.73470 30 ft 0 kts 124°
2026-04-23 03:43 6.34038 99.73472 30 ft 0 kts 124°
2026-04-23 03:44 6.34026 99.73490 30 ft 5 kts 124°
2026-04-23 03:44 6.34004 99.73521 30 ft 6 kts 124°
2026-04-23 03:44 6.33964 99.73526 30 ft 4 kts 216°
2026-04-23 03:44 6.33946 99.73519 30 ft 4 kts 202°
2026-04-23 03:45 6.33934 99.73513 30 ft 3 kts 210°
2026-04-23 03:45 6.33701 99.73356 28 ft 76 kts 214°
2026-04-23 03:45 6.33070 99.72925 21 ft 138 kts 215°
2026-04-23 03:45 6.32126 99.72290 100 ft 177 kts 214°
2026-04-23 03:46 6.31100 99.71595 668 ft 175 kts 213°
2026-04-23 03:46 6.30059 99.70966 1314 ft 174 kts 200°
2026-04-23 03:46 6.28588 99.71230 2067 ft 169 kts 131°
2026-04-23 03:46 6.28148 99.71883 2467 ft 168 kts 116°
2026-04-23 03:47 6.27653 99.72938 3054 ft 169 kts 114°
2026-04-23 03:47 6.27119 99.74024 3537 ft 180 kts 117°
2026-04-23 03:47 6.26474 99.75174 3950 ft 196 kts 119°
2026-04-23 03:47 6.25730 99.76389 4365 ft 213 kts 121°
2026-04-23 03:48 6.24890 99.77705 4806 ft 230 kts 122°
2026-04-23 03:48 6.23966 99.79125 5178 ft 253 kts 122°
2026-04-23 03:48 6.22407 99.81017 5847 ft 278 kts 144°
2026-04-23 03:48 6.21273 99.81666 6356 ft 282 kts 153°
2026-04-23 03:49 6.19459 99.82469 7197 ft 285 kts 156°
2026-04-23 03:49 6.17623 99.83254 8016 ft 289 kts 155°
2026-04-23 03:49 6.15771 99.84073 8795 ft 293 kts 154°
2026-04-23 03:49 6.13929 99.84916 9687 ft 290 kts 154°
2026-04-23 03:50 6.12117 99.85762 10754 ft 279 kts 153°
2026-04-23 03:50 6.10405 99.86571 11786 ft 267 kts 153°
2026-04-23 03:50 6.08756 99.87356 12673 ft 260 kts 153°
2026-04-23 03:50 6.07124 99.88138 13373 ft 261 kts 152°
2026-04-23 03:51 6.05481 99.88925 14011 ft 264 kts 152°
2026-04-23 03:51 6.03792 99.89735 14556 ft 271 kts 152°
2026-04-23 03:51 6.02041 99.90575 14834 ft 290 kts 152°
2026-04-23 03:51 5.99429 99.91834 14851 ft 326 kts 152°
2026-04-23 03:52 5.98013 99.92513 14870 ft 343 kts 152°
2026-04-23 03:52 5.95814 99.93567 14861 ft 355 kts 153°
2026-04-23 03:52 5.93556 99.94647 14858 ft 357 kts 153°
2026-04-23 03:52 5.91270 99.95740 14707 ft 358 kts 152°
2026-04-23 03:53 5.89006 99.96825 14442 ft 355 kts 153°
2026-04-23 03:53 5.86797 99.97884 14092 ft 353 kts 153°
2026-04-23 03:53 5.84572 99.98951 13689 ft 351 kts 153°
2026-04-23 03:53 5.82370 100.00008 13292 ft 348 kts 153°
2026-04-23 03:54 5.80167 100.01063 12869 ft 345 kts 153°
2026-04-23 03:54 5.77966 100.02118 12417 ft 343 kts 153°
2026-04-23 03:54 5.75809 100.03151 11965 ft 342 kts 153°
2026-04-23 03:54 5.73620 100.04039 11524 ft 341 kts 161°
2026-04-23 03:55 5.71274 100.04599 11057 ft 342 kts 170°
2026-04-23 03:55 5.68908 100.04894 10591 ft 341 kts 172°
2026-04-23 03:55 5.66550 100.05136 10306 ft 333 kts 173°
2026-04-23 03:55 5.64277 100.05362 10165 ft 320 kts 173°
2026-04-23 03:56 5.62053 100.05588 10050 ft 307 kts 173°
2026-04-23 03:56 5.59966 100.05803 9843 ft 299 kts 173°
2026-04-23 03:56 5.57860 100.06023 9461 ft 298 kts 173°
2026-04-23 03:56 5.55791 100.06242 9068 ft 296 kts 173°
2026-04-23 03:57 5.53732 100.06459 8718 ft 294 kts 173°
2026-04-23 03:57 5.51696 100.06675 8359 ft 292 kts 173°
2026-04-23 03:57 5.49683 100.06889 8016 ft 289 kts 173°
2026-04-23 03:57 5.47671 100.07102 7686 ft 286 kts 173°
2026-04-23 03:58 5.45006 100.07294 7233 ft 284 kts 180°
2026-04-23 03:58 5.43691 100.07217 7009 ft 282 kts 185°
2026-04-23 03:58 5.41725 100.06924 6682 ft 280 kts 189°
2026-04-23 03:58 5.39818 100.06588 6347 ft 278 kts 189°
2026-04-23 03:59 5.37879 100.06240 6022 ft 276 kts 189°
2026-04-23 03:59 5.35971 100.05901 5690 ft 275 kts 189°
2026-04-23 03:59 5.34091 100.05571 5353 ft 273 kts 189°
2026-04-23 03:59 5.32202 100.05241 5018 ft 271 kts 189°
2026-04-23 04:00 5.30337 100.04919 4691 ft 269 kts 189°
2026-04-23 04:00 5.28485 100.04596 4367 ft 267 kts 189°
2026-04-23 04:00 5.26650 100.04278 4045 ft 265 kts 189°
2026-04-23 04:00 5.24805 100.03960 3720 ft 264 kts 189°
2026-04-23 04:01 5.23001 100.03648 3397 ft 262 kts 189°
2026-04-23 04:01 5.21228 100.03340 3332 ft 249 kts 189°
2026-04-23 04:01 5.19543 100.03227 3256 ft 236 kts 167°
2026-04-23 04:01 5.18187 100.04011 3180 ft 221 kts 127°
2026-04-23 04:02 5.17533 100.05349 3152 ft 206 kts 109°
2026-04-23 04:02 5.17067 100.06670 3157 ft 194 kts 110°
2026-04-23 04:02 5.16599 100.07934 3002 ft 190 kts 111°
2026-04-23 04:02 5.16116 100.09176 2867 ft 189 kts 111°
2026-04-23 04:03 5.15622 100.10412 2724 ft 189 kts 111°
2026-04-23 04:03 5.15126 100.11636 2438 ft 187 kts 112°
2026-04-23 04:03 5.14676 100.12873 2154 ft 187 kts 98°
2026-04-23 04:03 5.14925 100.14123 1965 ft 186 kts 59°
2026-04-23 04:04 5.15770 100.15121 1976 ft 188 kts 44°
2026-04-23 04:04 5.16720 100.15968 1976 ft 174 kts 40°
2026-04-23 04:04 5.17634 100.16750 1955 ft 168 kts 41°
2026-04-23 04:04 5.18517 100.17523 1954 ft 168 kts 42°
2026-04-23 04:05 5.19393 100.18308 1959 ft 168 kts 42°
2026-04-23 04:05 5.20274 100.19106 1964 ft 168 kts 43°
2026-04-23 04:05 5.21146 100.19902 1897 ft 168 kts 43°
2026-04-23 04:05 5.22013 100.20692 1699 ft 168 kts 43°
2026-04-23 04:06 5.22862 100.21463 1471 ft 158 kts 43°
2026-04-23 04:06 5.23656 100.22186 1259 ft 148 kts 43°
2026-04-23 04:06 5.24435 100.22894 1084 ft 148 kts 43°
2026-04-23 04:06 5.25203 100.23592 906 ft 149 kts 43°
2026-04-23 04:07 5.25972 100.24290 722 ft 148 kts 43°
2026-04-23 04:07 5.26744 100.24990 531 ft 148 kts 41°
2026-04-23 04:07 5.27525 100.25695 335 ft 148 kts 42°
2026-04-23 04:07 5.28284 100.26395 150 ft 149 kts 41°
2026-04-23 04:08 5.29272 100.27284 22 ft 108 kts 45°
2026-04-23 04:08 5.29616 100.27598 22 ft 36 kts 42°
2026-04-23 04:08 5.29734 100.27707 22 ft 31 kts 42°